Location: Cheyres
(46.8153°N, 6.7877°E)
Time: 03:43:13
(UTC+00:00)

Cosmos 858 Rocket - Pass Details

Date: 11 May 2021
Orbit: 755 x 775 km, 74.1° (Epoch: 18 June)

Event Time Altitude Azimuth Distance (km) Brightness Sun altitude
Exits shadow 22:24:16 60° 194° (SSW) 871 4.4 -23.4°
Maximum altitude 22:25:15 86° 112° (ESE) 769 4.4 -23.5°
Drops below altitude 10° 22:30:30 10° 23° (NNE) 2,310 7.7 -23.7°
Sets 22:32:54 0° 23° (NNE) 3,243 8.5 -23.8°
